Location: Alphen
(52.1351°N, 4.6549°E)
Time: 01:45:34
(UTC+00:00)

CENTAUR R/B - Pass Details

Date: 27 January 2021
Orbit: 742 x 1446 km, 63.5° (Epoch: 25 February)

Event Time Altitude Azimuth Distance (km) Brightness Sun altitude
Rises 05:18:48 0° 203° (SSW) 3,410 5.2 -19.8°
Reaches altitude 10° 05:21:09 10° 198° (SSW) 2,555 4.6 -19.4°
Maximum altitude 05:26:55 53° 123° (ESE) 1,214 3.3 -18.5°
Drops below altitude 10° 05:33:49 10° 49° (NE) 3,044 5.7 -17.5°
Sets 05:36:50 0° 46° (NE) 4,119 6.3 -17.0°
